TIME,DELAY(SENSOR),PRES,T(CTD),SAL,OXYGEN,RAWTEMP,T(OPTODE),TCPHASE,FLUOR,BETA(BETA700),BETA(BETA412),BETA(BETA440),CDOM,C(CSC),ED(ED411.90),ED(ED443.80),ED(ED489.40),ED(ED554.70),LU(LU412.20),LU(LU443.80),LU(LU489.40),LU(LU555.00),COMP,TILTX,TILTX(TILTY),CHECK
1377184155,5805,497.0700073242187500,17.3222999572753900,36.4207992553710940,210.5037994384765600,177.8630065917968800,17.3157901763916000,32.3060913085937500,83,1899,50,53,50,10348,2146960054,2147512429,2147271872,2147456905,2147080082,2146951808,2147658285,2147126537,62,-1,7,41163
1377184265,5808,486.3900146484375000,17.3715000152587900,36.4287986755371100,211.3657073974609400,176.0110931396484400,17.3716506958007800,32.2327919006347660,84,2034,50,52,51,10346,2146958747,2147514697,2147272777,2147456566,2147076269,2146955309,2147654235,2147127771,2648,-2,7,26402
1377184386,5805,474.7500000000000000,17.4995002746582030,36.4539985656738300,213.3847045898437500,171.8184051513672000,17.4981403350830080,32.0647888183593750,82,2115,50,52,50,10344,2146959753,2147515638,2147274230,2147456155,2147080091,2146955136,2147651675,2147131684,1426,-1,8,14678
1377184498,5805,464.1000061035156000,17.6299991607666000,36.4816017150878900,214.3506927490234400,167.7126007080078000,17.6220397949218750,31.9558601379394530,84,1938,50,54,50,10345,2146963373,2147513782,2147273993,2147453888,2147077549,2146954459,2147656649,2147128365,697,-1,8,34617
1377184619,5806,452.7900085449219000,17.6951999664306640,36.4958000183105500,216.0668945312500000,165.4156036376953000,17.6913604736328120,31.8321208953857420,84,1965,50,51,50,10345,2146960676,2147518582,2147270555,2147453952,2147076763,2146960512,2147654893,2147123611,3316,-1,8,6172
1377184729,5804,442.7200012207031000,17.7238006591796880,36.4994010925293000,216.2375030517578000,164.4660034179687500,17.7200202941894530,31.8098793029785160,84,1898,50,52,50,10342,2146960292,2147516534,2147272411,2147452434,2147078464,2146956562,2147653385,2147129728,2429,-1,8,4814
1377184863,5804,430.7799987792969000,17.7961006164550780,36.5107002258300800,215.6522979736328000,162.0079956054687500,17.7942104339599600,31.8077602386474600,84,1923,50,52,50,10342,2146958180,2147514797,2147269833,2147454957,2147077458,2146961691,2147652809,2147131346,1434,-1,8,12369
1377184984,5804,419.9400024414062500,17.8903007507324220,36.5256004333496100,216.8968963623047000,159.0162963867187500,17.8845405578613280,31.7004909515380860,86,1925,50,52,50,10340,2146957632,2147513408,2147272192,2147451876,2147083108,2146957476,2147654390,2147130578,742,-1,8,44398
1377185108,5803,409.1000061035156000,17.9409008026123050,36.5335998535156250,217.4474029541015600,157.2565002441406200,17.9376697540283200,31.6471900939941400,84,1918,50,53,50,10343,2146957897,2147514624,2147269211,2147452845,2147081179,2146958299,2147653714,2147131154,2767,-1,8,41799
1377185229,5803,398.6199951171875000,17.9918994903564450,36.5382003784179700,218.4866027832031200,155.6260070800781200,17.9869098663330080,31.5702495574951170,83,1906,50,52,51,10342,2146959926,2147512521,2147270272,2147450989,2147078573,2146959542,2147647853,2147127433,1387,-1,8,37370
1377185361,5807,387.1400146484375000,18.0333003997802730,36.5360984802246100,217.9523925781250000,154.1864929199218800,18.0303802490234380,31.5785999298095700,83,1912,50,53,50,10345,2146956864,2147515940,2147267474,2147452068,2147074944,2146957412,2147650267,2147126912,588,-1,8,63404
1377185484,5804,376.3800048828125000,18.0993995666503900,36.5471992492675800,216.9803924560547000,152.0948028564453000,18.0935592651367200,31.6015491485595700,84,1923,50,52,50,10342,2146959753,2147514212,2147269522,2147450816,2147080457,2146957814,2147649344,2147127168,373,-2,8,17415
1377185605,5809,365.6199951171875000,18.1732997894287100,36.5578002929687500,217.3791046142578000,149.6313934326172000,18.1679706573486330,31.5472908020019530,84,1926,51,53,50,10343,2146958857,2147515373,2147268315,2147450861,2147076123,2146958811,2147649371,2147125878,11,-1,8,4526
1377185729,5806,354.6700134277344000,18.2224998474121100,36.5589981079101560,219.1439056396484400,148.0417022705078000,18.2159996032714840,31.4328193664550780,84,1949,50,53,50,10342,2146958198,2147513645,2147268196,2147449929,2147078162,2146960621,2147650569,2147130706,2654,-1,8,31193
1377185861,5803,343.1099853515625000,18.2674999237060550,36.5579986572265600,220.6553955078125000,146.4078063964843800,18.2653694152832030,31.3319606781005860,83,1922,50,53,50,10342,2146957824,2147515090,2147268562,2147449197,2147078034,2146961426,2147652032,2147130331,2563,-1,8,1718
1377185982,5810,332.6900024414062500,18.3138008117675780,36.5634002685546900,221.6475067138672000,144.9907073974609400,18.3082008361816400,31.2613391876220700,84,1910,50,52,50,10339,2146961225,2147514861,2147267008,2147451227,2147071753,2146957421,2147651538,2147129673,1807,-1,8,40330
1377186116,5804,321.4100036621094000,18.3467998504638670,36.5611991882324200,224.2839050292968800,143.8836059570312500,18.3416500091552730,31.1115303039550780,84,1941,51,51,50,10342,2146959259,2147515602,2147268388,2147444900,2147079314,2146959716,2147650989,2147128256,683,-1,8,43272
1377186248,5805,310.7699890136719000,18.3724994659423830,36.5572013854980500,228.1625976562500000,143.0357055664062500,18.3672790527343750,30.9051208496093750,85,1974,50,52,50,10341,2146961252,2147513389,2147270409,2147448512,2147068041,2146962185,2147652297,2147129197,3456,-1,8,64262
1377186394,5805,299.4400024414062500,18.3733005523681640,36.5505981445312500,231.3764038085937500,142.8796997070312500,18.3719997406005860,30.7446098327636720,85,1965,50,54,49,10339,2146958043,2147516032,2147268324,2147449161,2147078994,2146962834,2147653778,2147133366,3103,-1,8,20439
1377186537,5804,288.6499938964844000,18.4340991973876950,36.5573997497558600,234.4483947753906200,140.9371032714843800,18.4307193756103500,30.5696907043457030,84,1934,50,53,49,10345,2146957860,2147514633,2147268086,2147449526,2147076598,2146960365,2147656036,2147129609,2544,-1,8,3848
1377186711,5803,274.1600036621094000,18.4615993499755860,36.5550994873046900,237.1641998291015600,140.0292053222656200,18.4581604003906250,30.4276504516601560,84,1964,50,50,49,10343,2146959606,2147514971,2147266825,2147447360,2147070537,2146962130,2147661449,2147130825,1229,-1,8,56751
1377186820,5804,263.0700073242187500,18.4855995178222660,36.5542984008789060,238.1578063964843800,139.2409057617187500,18.4819908142089840,30.3702793121337900,81,1935,52,51,50,10341,2146955721,2147511899,2147270162,2147449197,2147072493,2146964928,2147671414,2147129462,513,-1,8,1539
1377186930,5805,251.6999969482422000,18.5303993225097660,36.5564994812011700,237.5104064941406200,137.8146057128906200,18.5251197814941400,30.3818092346191400,82,1938,50,52,49,10338,2146955529,2147512173,2147268754,2147452132,2147077421,2146967021,2147676544,2147132425,3146,-1,8,23341
1377187031,5804,241.2599945068359400,18.5744991302490230,36.5601997375488300,236.0312042236328000,136.3283996582031200,18.5700607299804700,30.4325809478759770,83,1913,50,51,50,10339,2146956187,2147513590,2147268982,2147449517,2147074788,2146967753,2147687232,2147128475,2498,-1,8,49656
1377187141,5804,230.1000061035156200,18.6138000488281250,36.5615997314453100,236.0144042968750000,135.0522003173828000,18.6086502075195300,30.4165897369384770,83,1998,50,52,50,10335,2146958144,2147511149,2147268873,2147452992,2147073097,2146974710,2147697883,2147130550,1841,-1,8,38231
1377187251,5802,219.2200012207031200,18.6765995025634770,36.5668983459472660,233.7089996337890600,132.8652038574218800,18.6748008728027340,30.4978008270263670,82,1948,50,52,50,10328,2146956160,2147515885,2147271259,2147446747,2147069632,2146979574,2147714450,2147134116,1512,-1,8,42977
1377187381,5806,208.3300018310547000,18.8222007751464840,36.5761985778808600,230.9588012695312500,128.2084045410156200,18.8156890869140620,30.5697402954101560,86,2040,50,53,50,10329,2146957257,2147513819,2147270582,2147449005,2147073517,2146984749,2147735268,2147133604,612,-1,8,48577
1377187536,5806,198.3800048828125000,18.9256000518798830,36.5834999084472660,225.9147949218750000,124.6295013427734400,18.9239997863769530,30.7719192504882800,86,1947,50,52,50,10325,2146956754,2147514633,2147272749,2147445430,2147069860,2146993728,2147767753,2147136384,326,-1,8,28547
1377187602,5804,194.3000030517578000,18.9419002532959000,36.5807991027832000,226.4542999267578000,124.1884002685546900,18.9373493194580080,30.7389602661132800,86,1951,51,53,50,10326,2146959067,2147515821,2147271698,2147443940,2147077293,2147003328,2147781284,2147130660,3535,-1,8,53525
1377187686,5804,189.4199981689453000,19.0023002624511720,36.5824012756347660,226.8959045410156200,122.2088012695312500,18.9972801208496100,30.6905498504638670,86,1925,50,52,50,10324,2146958729,2147512338,2147274176,2147443940,2147072566,2147010724,2147803428,2147135305,2862,-1,8,60248
1377187763,5804,185.6100006103515600,19.0664997100830080,36.5839996337890600,227.3885040283203000,120.2356033325195300,19.0570201873779300,30.6397590637207030,88,1975,50,52,50,10323,2146957248,2147513499,2147271378,2147443913,2147080082,2147002276,2147776530,2147133010,2400,-1,9,25712
1377187851,5805,181.1799926757812500,19.1194992065429700,36.5866012573242200,228.3002929687500000,118.1604995727539000,19.1198692321777340,30.5674304962158200,88,1984,50,52,49,10323,2146956873,2147517248,2147271689,2147444452,2147085641,2147015853,2147816941,2147138514,2791,-1,9,25445
1377187928,5804,177.3999938964843800,19.1854000091552730,36.5854988098144500,229.5231933593750000,116.1910018920898400,19.1795196533203120,30.4811897277832030,88,1955,50,52,50,10320,2146959140,2147514130,2147275885,2147446674,2147078080,2147041636,2147890093,2147140964,3276,-1,8,41315
1377188018,5805,173.7400054931640600,19.2374000549316400,36.5876998901367200,230.7832946777343800,114.5373992919921900,19.2296199798584000,30.3977108001709000,87,1951,51,54,50,10309,2146958262,2147517019,2147277961,2147448768,2147090358,2147052278,2147909476,2147141083,243,-1,8,25459
1377188128,5805,170.0700073242187500,19.3439006805419920,36.5923004150390600,230.6058044433593800,111.1365966796875000,19.3326702117919920,30.3613300323486330,88,1975,50,52,50,10303,2146956781,2147518061,2147274816,2147442285,2147085485,2147055286,2147905152,2147146139,399,-2,8,31871
1377188271,5804,165.9600067138672000,19.3939990997314450,36.5918998718261700,232.8058013916015600,109.3219985961914000,19.3876705169677730,30.2310009002685550,87,1947,50,53,50,10314,2146959542,2147514029,2147276836,2147446427,2147091254,2147087881,2147994203,2147148717,3224,-2,8,58916
1377188374,5805,161.6300048828125000,19.4295005798339840,36.5928993225097660,235.9517059326172000,108.1444015502929700,19.4233703613281250,30.0653800964355470,88,1939,51,53,50,10308,2146959798,2147514678,2147282486,2147443611,2147094134,2147111442,2148057837,2147150710,2739,-1,8,56413
1377188451,5805,157.3399963378906200,19.4829006195068360,36.5840988159179700,238.7082061767578000,106.1759033203125000,19.4830493927001950,29.9102993011474600,86,1928,50,55,50,10308,2146955849,2147516598,2147281545,2147444132,2147105024,2147135945,2148099465,2147152128,2570,-1,9,21415
1377188528,5808,153.2700042724609400,19.5900001525878900,36.5942993164062500,240.5252990722656200,102.9686965942382800,19.5803108215332030,29.7840690612792970,89,1993,51,52,49,10304,2146959424,2147519250,2147283172,2147443684,2147113161,2147179885,2148202029,2147164013,2696,-1,8,17574
1377188605,5802,149.3899993896484400,19.6569004058837900,36.5847015380859400,245.3778076171875000,100.7688980102539000,19.6470508575439450,29.5340309143066400,86,1936,50,54,50,10297,2146959122,2147522331,2147287387,2147443739,2147123254,2147217709,2148271643,2147163693,3403,-2,8,36399
1377188684,5805,145.9600067138672000,19.7458000183105470,36.5872993469238300,250.6735992431640600,97.8385162353515600,19.7359695434570300,29.2604904174804700,87,1927,50,52,50,10303,2146957513,2147519424,2147289801,2147441298,2147133403,2147255488,2148357494,2147170834,3164,-1,8,18039
1377188794,5803,142.1199951171875000,19.8903999328613280,36.5947990417480500,252.8164978027343800,93.3131484985351600,19.8733406066894530,29.1089401245117200,86,1929,50,53,50,10296,2146958747,2147522989,2147292324,2147442276,2147151286,2147306038,2148458550,2147180470,2805,-2,8,45323
1377188948,5804,138.4100036621093800,20.0618000030517580,36.5909004211425800,253.3778076171875000,87.6335678100586000,20.0458507537841800,29.0120601654052730,88,1959,50,54,50,10294,2146958162,2147523181,2147295899,2147442934,2147160118,2147333001,2148504274,2147184009,2551,-1,9,60859
1377189099,5805,133.7100067138672000,20.1809997558593750,36.5898017883300800,255.3403015136718800,83.5758438110351600,20.1691703796386720,28.8761100769042970,89,1962,50,52,50,10289,2146961563,2147525796,2147300315,2147441965,2147193280,2147430235,2148676032,2147200329,3454,-1,9,10748
1377189198,5805,130.0099945068359400,20.4514999389648440,36.5858001708984400,259.2325134277344000,74.8250732421875000,20.4353294372558600,28.6002902984619140,90,1982,50,53,50,10288,2146960804,2147529910,2147311122,2147440923,2147223698,2147520685,2148838308,2147211392,294,-1,8,62890
1377189338,5807,125.2900009155273400,20.6665000915527340,36.5873985290527340,262.2019958496094000,67.4726867675781200,20.6591796875000000,28.3841304779052730,88,1957,50,54,49,10284,2146964224,2147536658,2147318107,2147442276,2147282934,2147685732,2149139437,2147235465,2692,-2,9,58683
1377189426,5806,121.4599990844726600,20.8612995147705080,36.5856018066406250,265.3876037597656000,61.4858818054199200,20.8416099548339840,28.1787490844726560,86,1921,50,53,48,10287,2146964818,2147540297,2147324032,2147442176,2147341504,2147834998,2149372160,2147253668,2427,-1,8,50773
1377189514,5806,118.0000000000000000,21.1142997741699220,36.5698013305664060,267.2849121093750000,53.5849189758300800,21.0826091766357420,28.0033893585205080,88,1979,51,53,50,10291,2146971483,2147544164,2147335606,2147438802,2147410834,2148007725,2149638765,2147276790,2477,-1,9,45159
1377189655,5802,113.6900024414062500,21.2535991668701170,36.5690002441406250,270.3872070312500000,48.2279205322265600,21.2461700439453120,27.8131408691406250,88,2024,50,53,50,10287,2146974308,2147558070,2147355529,2147440585,2147554331,2148368164,2150218733,2147319360,1970,-1,8,18551
1377189743,5805,109.5500030517578100,21.6005001068115230,36.5569992065429700,271.4928894042969000,38.5413703918457000,21.5422496795654300,27.6499004364013670,87,1949,50,54,49,10281,2146980196,2147568173,2147379629,2147440155,2147735780,2148788406,2150860196,2147369408,1644,-1,9,22774
1377189842,5804,106.1100006103515600,21.7952995300292970,36.5584983825683600,275.2217102050781000,31.1681404113769530,21.7679195404052730,27.4139194488525400,86,1971,51,53,49,10272,2146991734,2147584594,2147399442,2147436946,2147919826,2149196653,2151425755,2147413888,2163,-1,9,12712
1377189982,5809,102.1200027465820300,22.3871994018554700,36.5444984436035160,277.9060974121094000,12.5509300231933600,22.3389492034912100,27.0840492248535160,89,1986,50,53,49,10266,2147001133,2147604644,2147434038,2147437494,2148232530,2149846729,2152301686,2147485650,1842,-1,9,10803
1377190213,5805,99.6800003051757800,22.7080993652343750,36.5418014526367200,283.1948852539062500,1.4180749654769897,22.6812992095947270,26.7506904602050780,87,1966,50,52,48,10263,2146984347,2147571017,2147368054,2147430043,2147865408,2148787318,2150401920,2147338889,1605,-1,9,45501
1377190320,5802,96.7300033569336000,22.8591003417968750,36.5434989929199200,270.5042114257812500,-3.9181709289550780,22.8456497192382800,27.1695594787597660,87,1951,50,53,48,10259,2146973120,2147546285,2147315309,2147429549,2147578843,2148024786,2149109686,2147247625,1192,-2,9,33965
1377190375,5807,94.5299987792968800,22.8754005432128900,36.5415000915527340,268.1141967773437500,-4.6004090309143070,22.8666801452636720,27.2552604675292970,86,1945,50,53,49,10262,2146975085,2147538825,2147307849,2147427648,2147527606,2147894683,2148855186,2147226304,282,-1,8,12851
1377190430,5806,92.2500000000000000,22.9796009063720700,36.5312995910644500,265.8546142578125000,-7.0502490997314450,22.9421901702880860,27.3150596618652340,88,1956,50,53,49,10254,2146972379,2147536667,2147298267,2147424484,2147494646,2147782720,2148669101,2147213101,3397,-1,9,48633
1377190485,5806,90.3499984741211000,23.3857002258300780,36.5219001770019500,262.7565002441406000,-19.7774200439453120,23.3350906372070300,27.2842998504638670,87,1938,51,53,49,10256,2146971638,2147537133,2147294208,2147425865,2147477595,2147744685,2148608091,2147210011,509,-2,8,26719
1377190540,5805,89.6500015258789000,23.5466003417968750,36.5307998657226560,260.9592895507812500,-24.8833408355712900,23.4929904937744140,27.2948493957519530,86,1951,50,53,48,10256,2146968438,2147536649,2147295652,2147426203,2147451712,2147703478,2148555227,2147205659,3319,-2,9,59376
1377190941,5807,87.2200012207031200,24.3190994262695300,36.5553016662597660,286.6137084960937500,-50.6458015441894500,24.2922992706298830,26.0035591125488280,87,1930,50,52,49,10248,2147045851,2147682203,2147547584,2147434386,2149623469,2152409088,2155422326,2147763026,3331,-2,9,6553
1377191018,5806,85.4100036621093800,24.6763000488281250,36.5626983642578100,273.5744018554687500,-61.5174484252929700,24.6309795379638670,26.3577804565429700,88,1905,50,53,50,10228,2147036964,2147659072,2147518866,2147431378,2149433014,2151881380,2154540836,2147705252,481,-2,9,11468
1377191257,5806,82.9300003051757800,24.8624992370605470,36.5778999328613300,263.1827087402344000,-68.1949462890625000,24.8394203186035160,26.6816902160644530,92,2001,50,54,50,10222,2147061312,2147697298,2147584630,2147434331,2150113718,2153186358,2156358098,2147897600,278,-2,8,62833
1377191312,5804,81.2600021362304700,25.1016006469726560,36.5527992248535160,262.3370971679687500,-75.2002563476562500,25.0584506988525400,26.6311492919921880,91,1908,50,53,50,10218,2147080228,2147738112,2147650624,2147438619,2150784896,2154563062,2158379035,2148103652,3475,-2,9,16506
1377191422,5808,79.4700012207031200,25.1117000579834000,36.5489006042480500,276.1480102539062500,-76.7626113891601600,25.1073493957519530,26.0790290832519530,93,1937,50,53,50,10210,2147096658,2147760164,2147677878,2147440493,2151141979,2155218560,2159345152,2148230710,2720,-1,9,11981
1377191540,5805,76.1500015258789000,25.1870994567871100,36.5083999633789060,295.3327941894531000,-79.0935516357421900,25.1803398132324220,25.3597908020019530,90,2068,50,51,50,10220,2147143881,2147833225,2147786340,2147445037,2152352457,2157305636,2162055012,2148587840,2793,-2,9,20688
1377191595,5806,74.2099990844726600,25.4790000915527340,36.4746017456054700,299.7594909667969000,-87.7011337280273400,25.4502391815185550,25.1071891784667970,89,2086,50,52,48,10247,2147177755,2147883154,2147843364,2147448749,2153182034,2158551570,2163400649,2148756388,2244,-2,9,40135
1377191650,5806,73.0500030517578100,25.6137008666992200,36.4553985595703100,314.4065856933594000,-89.7919082641601600,25.5158805847167970,24.5977401733398440,90,1971,50,52,49,10243,2147190006,2147899977,2147854665,2147450907,2153479954,2158955081,2163660205,2148807808,2058,-2,9,54535
1377191846,5806,71.2099990844726600,25.8180007934570300,36.4322013854980500,354.4533996582031000,-98.9190597534179700,25.8028697967529300,23.2880191802978500,88,1908,50,52,49,10249,2147239021,2147965440,2147931876,2147454281,2154569234,2160719533,2165593462,2149048886,2353,-1,9,47134
1377191923,5800,69.3000030517578100,26.3099994659423830,36.3534011840820300,345.5846862792969000,-112.7801971435546900,26.2400093078613280,23.3844604492187500,83,1883,50,53,49,10248,2147252105,2147982610,2147950308,2147457325,2154937590,2161204553,2165841517,2149100425,2824,-2,9,60190
1377192151,5807,67.2099990844726600,26.3917999267578120,36.3432998657226560,371.6763916015625000,-117.3426971435546900,26.3842601776123050,22.6096992492675780,85,1927,50,53,50,10243,2147275382,2148013604,2147973778,2147459885,2155554788,2162077293,2166619483,2149246098,2467,-1,9,44390
1377192239,5806,65.5899963378906200,26.4269008636474600,36.3361015319824200,379.4298095703125000,-118.2301025390625000,26.4123306274414060,22.3955192565917970,87,1931,50,52,49,10251,2147307044,2148058724,2148035666,2147463844,2156453467,2163340187,2167859693,2149423588,1683,-2,9,22790
1377192455,5805,63.2099990844726560,26.5394992828369140,36.3219985961914060,392.1370849609375000,-122.1764984130859400,26.5372791290283200,22.0266990661621100,85,1880,50,52,50,10247,2147432859,2148241325,2148288859,2147494793,2159699785,2168373668,2172927040,2150064539,408,-2,9,21170
1377192521,5803,61.1800003051757800,26.6751995086669920,36.3100013732910160,407.6113891601562500,-126.7295989990234400,26.6816005706787100,21.5959205627441400,86,1924,50,53,48,10232,2147534189,2148373558,2148408283,2147500891,2162228644,2172099465,2176410404,2150509449,122,-1,9,33440
1377192598,5805,59.2000007629394500,26.8092994689941400,36.2947006225585940,435.6914978027344000,-130.3735961914062500,26.7972297668457030,20.9036293029785160,85,1947,50,53,49,10240,2147648713,2148534107,2148647469,2147541540,2165422409,2176704950,2180861138,2151116891,837,-2,9,34747
1377192697,5806,57.5499992370605500,26.8852005004882800,36.2827987670898440,476.5770874023437500,-133.0997009277343800,26.8838195800781250,19.9997806549072270,85,1883,50,53,49,10241,2147754770,2148648356,2148716370,2147537142,2167835757,2179981814,2183562761,2151472137,345,-2,9,42375
1377192804,5806,55.0600013732910160,26.9081993103027340,36.2700004577636700,508.9939880371094000,-133.9904937744140600,26.9121303558349600,19.3508491516113280,85,1891,50,51,49,10233,2147935369,2148854592,2148865462,2147535451,2172441874,2186200987,2188881773,2152206994,3289,-2,9,26918
1377192946,5804,50.4399986267089840,27.0750999450683600,36.2588005065918000,516.8027954101562000,-139.0899963378906200,27.0743198394775400,19.1487407684326170,86,1937,49,52,49,10230,2148347565,2149339136,2149309604,2147574793,2183387931,2200681947,2201540352,2154105508,2908,-1,9,35901
1377192980,5802,49.1699981689453100,27.1002006530761720,36.2569999694824200,535.6323242187500000,-139.8919982910156200,27.0998497009277340,18.7933502197265620,85,1916,50,53,49,10230,2148484260,2149483940,2149466733,2147600320,2186368091,2204273362,2204580891,2154594304,3248,-1,9,7391
1377193025,5804,47.4900016784668000,27.1088008880615230,36.2564010620117200,561.4511718750000000,-140.4187011718750000,27.1166191101074220,18.3318290710449220,85,1902,50,52,49,10224,2148651410,2149662006,2149639561,2147624822,2190757888,2209543817,2208818194,2155369133,3383,-2,9,40973
1377193087,5805,45.0900001525878900,27.1467990875244140,36.2504005432128900,568.1939697265625000,-142.1042022705078000,27.1702995300292970,18.1984500885009770,84,1863,50,53,48,10228,2148932580,2149958153,2149872822,2147645330,2198271296,2218604041,2216084278,2156610377,2964,-2,9,33804
1377193120,5808,43.4099998474121100,27.1749992370605470,36.2476997375488300,559.3591918945312000,-142.9329071044922000,27.1966991424560550,18.3413791656494140,84,1894,51,52,48,10230,2149142034,2150174802,2150042569,2147662656,2204744246,2226190518,2222128466,2157812580,2660,-2,9,3566
1377193153,5805,41.7299995422363300,27.2362003326416000,36.2599983215332000,539.6821289062500000,-144.1716003417968800,27.2361793518066400,18.6749801635742200,83,1877,50,53,50,10230,2149376374,2150403666,2150247972,2147694720,2211089755,2233445138,2228027008,2158950217,2345,-2,9,58321
1377193198,5806,39.4700012207031250,27.2938003540039060,36.2510986328125000,523.5040893554688000,-146.4844055175781200,27.3099308013916000,18.9451503753662100,83,1947,50,53,49,10228,2149707510,2150715053,2150494848,2147732214,2219832164,2242313216,2234261686,2160369828,2173,-2,9,63631
1377193231,5803,37.8499984741210940,27.3495006561279300,36.2389984130859400,518.8526000976562000,-147.9013977050781200,27.3551406860351560,19.0165290832519530,84,1858,50,53,49,10228,2149959826,2150949120,2150680164,2147759936,2226716077,2249593920,2239548900,2161583542,2155,-2,9,29501